Flag for Germany Weather past 2 weeks in Erding, Bavaria, Germany

Now
57 °F

Drizzle. Fog.


Feels Like: 57 °F
Forecast: 51 / 67 °F
Wind: 2 mph from North

Location: Munich / Franz Josef Strauss Airport

Current Time: Sep 3, 2015 at 7:33:25 AM

Latest Report: Sep 3, 2015 at 7:20 AM


Visibility: 2 mi

Pressure: 29.95 "Hg

Humidity: 94%

Dew point: 55 °F

Location of ErdingLocation

Historic Weather in Erding — Graph

°F

Erding temperature yesterday

Maximum temperature yesterday: 61 °F (at 12:50 AM)
Minimum temperature yesterday: 55 °F (at 10:20 PM)
Average temperature yesterday: 59 °F

Past Weeks' High & Low Weather Summary

 TemperatureHumidityPressure
High91 °F (Aug 30, 3:50 PM)100% (Aug 21, 3:50 AM)30.30 "Hg (Aug 21, 3:50 AM)
Low45 °F (Aug 22, 6:20 AM)24% (Aug 26, 5:20 PM)29.71 "Hg (Aug 24, 4:50 PM)
Average66 °F71%30.05 "Hg
* Reported Aug 19 6:20 AM — Sep 3 6:20 AM, Erding, Weather by CustomWeather, © 2015

Note: Actual official high and low records may vary slightly from our data, if they occured in-between our weather recording intervals... More about our weather records

Advertising

Erding weather history for previous 24 hours

 ConditionsComfort  
Time TempWeatherWind HumidityBarometerVisibility
6:20 AM
Thu, Sep 3
57 °FDrizzle. Fog.5 mph94%29.95 "Hg2 mi
5:20 AM57 °FDrizzle. Fog.3 mph94%29.98 "Hg2 mi
4:50 AM55 °FFog.6 mph100%29.98 "Hg2 mi
4:20 AM55 °FFog.5 mph100%29.98 "Hg2 mi
3:50 AM55 °FFog.2 mph100%29.98 "Hg2 mi
3:20 AM55 °FPartly cloudy.5 mph94%29.98 "Hg3 mi
2:50 AM54 °FClear.5 mph100%30.01 "Hg4 mi
2:20 AM54 °FClear.1 mph94%30.01 "Hg4 mi
1:50 AM54 °FClear.2 mph100%30.01 "Hg5 mi
1:20 AM55 °FPassing clouds.3 mph94%30.01 "HgN/A
12:50 AM55 °FClear.2 mph94%30.01 "Hg10 mi
12:20 AM55 °FClear.6 mph94%30.01 "Hg10 mi
11:50 PM
Wed, Sep 2
55 °FPassing clouds.2 mph94%30.01 "HgN/A
11:20 PM55 °FPassing clouds.7 mph94%30.01 "HgN/A
10:50 PM55 °FPassing clouds.3 mph94%30.04 "HgN/A
10:20 PM55 °FPassing clouds.6 mph88%30.04 "HgN/A
9:50 PM57 °FPartly cloudy.5 mph94%30.04 "HgN/A
9:20 PM57 °FPassing clouds.1 mph94%30.04 "HgN/A
8:50 PM57 °FPartly sunny.1 mph94%30.04 "HgN/A
8:20 PM59 °FPartly sunny.3 mph88%30.04 "HgN/A
7:50 PM59 °FBroken clouds.3 mph88%30.04 "HgN/A
7:20 PM59 °FBroken clouds.2 mph88%30.04 "HgN/A
6:50 PM59 °FPartly sunny.6 mph88%30.04 "HgN/A
6:20 PM59 °FBroken clouds.5 mph88%30.04 "HgN/A
5:50 PM59 °FBroken clouds.5 mph88%30.04 "HgN/A
5:20 PM59 °FBroken clouds.2 mph88%30.04 "HgN/A
4:50 PM59 °FBroken clouds.5 mph94%30.01 "Hg6 mi
4:20 PM59 °FDrizzle. More clouds than sun.2 mph94%30.01 "Hg6 mi
3:50 PM59 °FDrizzle. More clouds than sun.3 mph94%30.01 "Hg3 mi
3:20 PM59 °FDrizzle. More clouds than sun.3 mph94%30.04 "Hg4 mi
2:50 PM59 °FLight rain. Broken clouds.2 mph94%30.04 "Hg6 mi
2:20 PM59 °FLight rain. Broken clouds.3 mph94%30.04 "HgN/A
1:50 PM61 °FDrizzle. Broken clouds.3 mph88%30.04 "Hg6 mi
1:20 PM61 °FLight rain. Broken clouds.6 mph88%30.04 "HgN/A
12:50 PM59 °FDrizzle. Broken clouds.3 mph94%30.04 "HgN/A
12:20 PM59 °FDrizzle. Broken clouds.5 mph94%30.04 "HgN/A
11:50 AM59 °FBroken clouds.6 mph88%30.04 "HgN/A
11:20 AM59 °FBroken clouds.5 mph88%30.07 "HgN/A
10:50 AM59 °FLight rain. Partly sunny.6 mph88%30.07 "HgN/A
10:20 AM59 °FPartly sunny.3 mph94%30.07 "HgN/A
9:50 AM59 °FPartly sunny.3 mph94%30.07 "HgN/A
9:20 AM59 °FBroken clouds.5 mph88%30.07 "Hg6 mi
8:50 AM59 °FLight rain. Broken clouds.5 mph88%30.07 "Hg5 mi
8:20 AM59 °FLight rain. Broken clouds.5 mph88%30.07 "Hg5 mi
7:50 AM59 °FLight rain. Broken clouds.5 mph88%30.07 "Hg5 mi
7:20 AM59 °FLight rain. Partly cloudy.5 mph88%30.04 "Hg4 mi
Weather by CustomWeather, © 2015

See weather overviewHow to use our weather pages